XJS D (45250 NORAD) Tracking and Keplerian Element Data

This shows tracking and keplerian element data for the satellite.

Feedback or suggestion? Click here.




ElementValue
Catalog45250
NameXJS D
Epoch Orbit2130
Epoch Day190.03269676
Epoch Year2020
RAAN278.51
Inclination35.0115
Eccentricity0.0008665
Argument of Perigee59.3618
Mean Anonmoly299.6013
Mean Motion15.28271941
Decay Rate1.202E-05
L11 45250U 20014B 20190.03269676 .00001202 00000-0 43927-4 0 9998
L22 45250 35.0115 278.5100 0008665 59.3618 299.6013 15.28271941 21309

Live tracking and technical data element details for XJS D (NORAD 45250). XJS D can be tracked NOW for your location showing map with azimuth and elevation plus other details from your city location.

Track the satellite on the map from your city or location and see movement details for azimuth, elevation, latitude, longitude, range, height, and movement on the map or in text.







IsCatalogInMostPopularTable: catalog: 45250, numindb: 27
Update: records affected: 1



GetName: 45250 XJS D

Hit Count: updated at: Thu, 09 Jul 2020 01:42:30 GMT